[[{"header":{"parameterUnit":"m.s-1","parameterCategory":1,"la1":30.2991,"la2":30.254,"lo1":-89.0895,"lo2":-89.0444,"dy":0.0017,"dx":0.0017,"nx":28,"ny":28,"refTime":"2025-02-08T09:00:00:Z","depth":0,"parameterNumber":2,"parameterNumberName":"U-component_of_WINDS"},"data":[0,0,0,0,0,0,0,0,0,0,0,0,0,0,0,0,0,0,0,0,0,0,0,0,0,0,0,0,0,0,0,0,0,0,0,0,0,0,0,0,0,0,0,0,0,0,0,0,0,0,0,0,0,0,0,0,0,0,-0.6688,-0.6688,0,-0.6697,-0.6697,-0.6697,-0.6712,-0.6712,-0.6713,-0.6713,-0.6721,-0.6721,-0.6721,0,0,0,0,0,0,0,0,0,0,0,0,0,-0.6684,-0.6684,-0.6688,-0.6688,-0.6689,-0.6697,-0.6697,-0.6697,-0.6712,-0.6712,-0.6713,-0.6713,-0.6721,-0.6721,-0.6721,0,0,0,0,0,0,0,0,0,0,0,0,0,-0.6689,-0.6684,-0.6688,-0.6697,-0.6698,-0.6697,-0.6697,-0.6697,-0.6712,-0.6712,-0.6713,-0.6713,-0.6721,-0.6721,-0.6721,-0.6712,0,0,-0.6721,-0.6721,0,0,0,0,0,0,0,0,-0.6688,-0.6689,-0.6696,-0.6696,-0.6697,-0.6704,-0.6699,-0.6702,-0.6712,-0.6707,-0.6713,-0.6713,-0.6715,-0.6716,-0.6716,-0.6713,-0.6713,-0.6721,-0.6721,-0.6721,-0.6721,0,0,0,0,0,0,0,-0.6688,-0.6689,-0.6692,-0.6696,-0.6697,-0.67,-0.6701,-0.6699,-0.6708,-0.6707,-0.6708,-0.6709,-0.6716,-0.6716,-0.6717,-0.6713,-0.6721,-0.6721,-0.6721,-0.6721,-0.6702,-0.6701,0,0,0,0,0,0,-0.6687,-0.6688,-0.6691,-0.6692,-0.6694,-0.67,-0.6701,-0.6701,-0.6708,-0.671,-0.6709,-0.671,-0.6716,-0.6717,-0.6717,-0.6706,-0.6721,-0.6721,-0.6721,-0.6702,-0.6702,-0.6701,0,0,0,0,0,0,-0.6686,-0.6687,-0.6691,-0.669,-0.6691,-0.67,-0.67,-0.6701,-0.6702,-0.671,-0.6711,-0.6708,-0.6717,-0.6717,-0.6713,-0.6707,-0.6721,-0.6721,-0.6703,-0.6702,-0.6701,-0.6685,0,0,0,0,0,0,-0.6686,-0.6687,-0.6683,-0.669,-0.6691,-0.6687,-0.6699,-0.6701,-0.6702,-0.6703,-0.6709,-0.671,-0.6717,-0.6713,-0.6713,-0.6707,-0.6721,-0.6703,-0.6702,-0.6702,-0.6686,-0.6684,-0.6682,0,0,0,0,0,-0.6686,-0.6679,-0.6683,-0.6684,-0.6687,-0.6687,-0.6687,-0.6695,-0.6701,-0.6698,-0.6703,-0.671,-0.6708,-0.6713,-0.6713,-0.6706,-0.6704,-0.6703,-0.6702,-0.6687,-0.6684,-0.6682,0,0,0,0,0,0,-0.6671,-0.668,-0.6685,-0.6679,-0.6682,-0.6689,-0.6686,-0.6692,-0.6693,-0.6694,-0.6704,-0.6705,-0.67,-0.6703,-0.6708,-0.6697,-0.6707,-0.6706,-0.6695,-0.6693,-0.6691,-0.669,-0.6721,0,0,0,0,0,-0.6667,-0.6666,-0.6674,-0.6668,-0.6669,-0.6677,-0.6677,-0.6683,-0.6686,-0.6687,-0.6692,-0.6695,-0.6694,-0.6694,-0.6694,-0.6687,-0.6688,-0.6682,-0.668,-0.6678,-0.6677,-0.6672,-0.6669,-0.6698,-0.6698,-0.6698,0,0,-0.6659,-0.6663,-0.6662,-0.6665,-0.6668,-0.6666,-0.6678,-0.6676,-0.6675,-0.6687,-0.6683,-0.6687,-0.6691,-0.6684,-0.6682,-0.6687,-0.6669,-0.6677,-0.6675,-0.6675,-0.6671,-0.6668,-0.6666,-0.6697,-0.6697,-0.6697,0,0,-0.6643,-0.6646,-0.6642,-0.6644,-0.6648,-0.6654,-0.6652,-0.6659,-0.6661,-0.6658,-0.6667,-0.6665,-0.6665,-0.6667,-0.6668,-0.6652,-0.6658,-0.6652,-0.664,-0.6635,-0.6633,-0.6631,-0.6624,-0.6622,-0.6651,-0.6651,-0.6651,0,-0.6632,-0.663,-0.6638,-0.6635,-0.6636,-0.6647,-0.6642,-0.6644,-0.6648,-0.6648,-0.6654,-0.6653,-0.6656,-0.665,-0.6646,-0.6647,-0.6646,-0.6651,-0.6633,-0.6631,-0.6629,-0.6623,-0.662,-0.665,-0.665,-0.665,-0.665,0,-0.6616,-0.6614,-0.661,-0.6613,-0.6613,-0.6609,-0.6617,-0.6616,-0.6622,-0.6626,-0.6622,-0.6627,-0.6628,-0.6627,-0.6632,-0.6621,-0.6624,-0.6631,-0.664,-0.6625,-0.662,-0.6617,-0.6648,-0.6649,-0.6649,-0.6649,0,0,-0.659,-0.6598,-0.6596,-0.6597,-0.6602,-0.6601,-0.6597,-0.6598,-0.6597,-0.6599,-0.6596,-0.6595,-0.6601,-0.6602,-0.6608,-0.6604,-0.659,-0.6612,-0.6612,-0.6607,-0.6577,-0.6571,-0.6568,-0.6595,-0.6595,-0.6594,-0.6576,0,-0.6574,-0.6568,-0.6576,-0.6568,-0.6566,-0.6576,-0.6573,-0.6576,-0.658,-0.6579,-0.6583,-0.6582,-0.6591,-0.6592,-0.6588,-0.6593,-0.6584,-0.6594,-0.6591,-0.6591,-0.6589,-0.6565,-0.6559,-0.6542,-0.6574,-0.6574,-0.6574,0,-0.6555,-0.6556,-0.6548,-0.6553,-0.6552,-0.6549,-0.655,-0.6549,-0.6552,-0.6555,-0.6556,-0.6563,-0.6559,-0.6569,-0.6564,-0.657,-0.657,-0.6571,-0.6571,-0.657,-0.6581,-0.6563,-0.6537,-0.6534,-0.657,-0.6571,-0.6571,0,-0.6535,-0.6535,-0.653,-0.6531,-0.6537,-0.6534,-0.6536,-0.654,-0.654,-0.654,-0.654,-0.6541,-0.6541,-0.6541,-0.6547,-0.6554,-0.6541,-0.6551,-0.6543,-0.6542,-0.6539,-0.6538,-0.6511,-0.654,-0.654,-0.654,-0.654,0,-0.6516,-0.6511,-0.6521,-0.6518,-0.6511,-0.652,-0.6514,-0.6517,-0.652,-0.6517,-0.6527,-0.6524,-0.6534,-0.6532,-0.6537,-0.6531,-0.6531,-0.6533,-0.6535,-0.6532,-0.6531,-0.6531,-0.6532,-0.6539,-0.6539,-0.654,-0.654,0,-0.6493,-0.65,-0.6495,-0.6501,-0.6502,-0.6497,-0.6502,-0.6499,-0.6504,-0.65,-0.65,-0.6507,-0.6505,-0.6512,-0.6512,-0.6515,-0.6506,-0.651,-0.6505,-0.6506,-0.6496,-0.6496,-0.6466,-0.6462,-0.6495,-0.6494,-0.6494,0,-0.648,-0.6476,-0.6481,-0.648,-0.6482,-0.648,-0.6479,-0.6488,-0.6487,-0.649,-0.6486,-0.6485,-0.6485,-0.6481,-0.6486,-0.6486,-0.6489,-0.6478,-0.6489,-0.6486,-0.6487,-0.6487,-0.6486,-0.6476,-0.6475,-0.6475,-0.6475,0,-0.6456,-0.6459,-0.6458,-0.6458,-0.6457,-0.6458,-0.6459,-0.6457,-0.6467,-0.6465,-0.6463,-0.6463,-0.6462,-0.646,-0.6461,-0.6463,-0.647,-0.6472,-0.6469,-0.6466,-0.6462,-0.6463,-0.6498,-0.6472,-0.6472,-0.6472,-0.6473,-0.6473,-0.6436,-0.6433,-0.6436,-0.6434,-0.6436,-0.6436,-0.6434,-0.6438,-0.6436,-0.6436,-0.6441,-0.6438,-0.6441,-0.6442,-0.6443,-0.6441,-0.6446,-0.6443,-0.6442,-0.644,-0.6438,-0.6464,-0.6441,-0.6441,-0.6441,-0.6441,-0.6441,0,-0.6411,-0.6414,-0.6412,-0.6413,-0.6412,-0.6419,-0.642,-0.6419,-0.6416,-0.6417,-0.6417,-0.6414,-0.6412,-0.6417,-0.6416,-0.6413,-0.6416,-0.6413,-0.6412,-0.6412,-0.6435,-0.6436,-0.641,-0.641,-0.641,-0.641,-0.641,-0.641,-0.6398,-0.6392,-0.6396,-0.639,-0.6393,-0.6389,-0.6389,-0.639,-0.6391,-0.6388,-0.6386,-0.639,-0.6392,-0.6392,-0.639,-0.6392,-0.639,-0.6385,-0.6388,-0.6408,-0.6411,-0.6414,-0.6415,-0.6385,-0.6385,-0.6366,-0.6365,-0.6365]},{"header":{"parameterUnit":"m.s-1","parameterCategory":1,"la1":30.2991,"la2":30.254,"lo1":-89.0895,"lo2":-89.0444,"dy":0.0017,"dx":0.0017,"nx":28,"ny":28,"refTime":"2025-02-08T09:00:00:Z","depth":0,"parameterNumber":3,"parameterNumberName":"V-component_of_WINDS"},"data":[0,0,0,0,0,0,0,0,0,0,0,0,0,0,0,0,0,0,0,0,0,0,0,0,0,0,0,0,0,0,0,0,0,0,0,0,0,0,0,0,0,0,0,0,0,0,0,0,0,0,0,0,0,0,0,0,0,0,4.6831,4.6833,0,4.6985,4.6986,4.6988,4.6993,4.6992,4.699,4.6988,4.7138,4.7144,4.715,0,0,0,0,0,0,0,0,0,0,0,0,0,4.6536,4.6542,4.6831,4.6833,4.6835,4.6984,4.6986,4.6988,4.6994,4.6991,4.6989,4.6987,4.7137,4.7143,4.715,0,0,0,0,0,0,0,0,0,0,0,0,0,4.6674,4.6543,4.6831,4.6856,4.6859,4.6984,4.6986,4.6989,4.6994,4.6991,4.6989,4.6986,4.7134,4.7143,4.7151,4.7259,0,0,4.7177,4.7181,0,0,0,0,0,0,0,0,4.6666,4.6685,4.685,4.6854,4.6859,4.6967,4.6938,4.7079,4.6995,4.6943,4.6988,4.6985,4.7083,4.7096,4.713,4.7266,4.7272,4.7178,4.7183,4.7187,4.7189,0,0,0,0,0,0,0,4.6657,4.6678,4.6892,4.6852,4.6858,4.6857,4.6874,4.6964,4.7026,4.6947,4.6948,4.6966,4.7085,4.7122,4.7134,4.7275,4.7178,4.7185,4.7191,4.7194,4.7507,4.751,0,0,0,0,0,0,4.6643,4.667,4.6887,4.6896,4.6754,4.6865,4.6883,4.6935,4.7025,4.7037,4.6969,4.6966,4.7109,4.7124,4.7139,4.7273,4.7187,4.7195,4.72,4.7504,4.7508,4.7511,0,0,0,0,0,0,4.6637,4.6663,4.688,4.6784,4.6811,4.6873,4.6931,4.6939,4.6977,4.7042,4.7052,4.6996,4.7107,4.7127,4.723,4.7278,4.7199,4.7206,4.75,4.7505,4.7509,4.754,0,0,0,0,0,0,4.6628,4.666,4.6703,4.6785,4.6817,4.6971,4.6934,4.6944,4.6992,4.6991,4.707,4.708,4.7107,4.7217,4.7238,4.7289,4.7213,4.7496,4.7502,4.7508,4.7535,4.7546,4.7554,0,0,0,0,0,4.6618,4.6704,4.6706,4.6732,4.6872,4.6973,4.6991,4.7022,4.6996,4.7039,4.7081,4.7078,4.7269,4.7228,4.7252,4.7305,4.7493,4.7501,4.7507,4.7531,4.7544,4.7554,0,0,0,0,0,0,4.6624,4.6715,4.6718,4.6833,4.6896,4.6974,4.703,4.7034,4.7103,4.7099,4.7131,4.7149,4.7251,4.7288,4.724,4.7414,4.7378,4.739,4.7388,4.74,4.7409,4.7399,4.722,0,0,0,0,0,4.664,4.6716,4.6791,4.6885,4.6917,4.6968,4.7013,4.7031,4.7096,4.7122,4.7171,4.7233,4.7307,4.7355,4.7426,4.754,4.7557,4.7588,4.7598,4.7605,4.7616,4.768,4.7695,4.7535,4.7535,4.7534,0,0,4.6671,4.673,4.6776,4.6888,4.6939,4.7016,4.699,4.7072,4.713,4.7134,4.7236,4.7273,4.7344,4.7453,4.7503,4.7486,4.7664,4.7614,4.762,4.7627,4.7689,4.7704,4.7717,4.7539,4.7539,4.7538,0,0,4.6769,4.6821,4.6907,4.6959,4.7037,4.707,4.709,4.7169,4.7195,4.7297,4.7303,4.7369,4.7496,4.7547,4.7589,4.7707,4.7707,4.7728,4.7779,4.7841,4.7853,4.7865,4.7908,4.7923,4.7738,4.7739,4.7739,0,4.6798,4.6917,4.6949,4.7034,4.7083,4.7092,4.7178,4.7226,4.7322,4.7355,4.7335,4.7496,4.7543,4.7665,4.7694,4.7727,4.7751,4.7721,4.7849,4.7861,4.7872,4.7914,4.793,4.7741,4.7741,4.774,4.774,0,4.695,4.7032,4.7091,4.7188,4.7243,4.7327,4.7371,4.7422,4.7435,4.747,4.7574,4.7632,4.7716,4.7746,4.7758,4.787,4.7857,4.7843,4.7807,4.7889,4.7929,4.7945,4.7744,4.7743,4.7743,4.7742,0,0,4.7057,4.7171,4.7193,4.7237,4.7324,4.7387,4.7471,4.7556,4.76,4.7665,4.7737,4.7844,4.7832,4.788,4.7897,4.7951,4.8042,4.7931,4.7933,4.7951,4.817,4.8182,4.82,4.8042,4.8045,4.8047,4.8165,0,4.7166,4.732,4.7352,4.7484,4.756,4.757,4.7643,4.7703,4.7738,4.7806,4.7842,4.7919,4.7896,4.7926,4.7979,4.802,4.8087,4.8012,4.8108,4.8111,4.8093,4.822,4.8233,4.8341,4.818,4.8183,4.8185,0,4.7315,4.7388,4.7528,4.7606,4.7639,4.7705,4.7786,4.7851,4.7919,4.794,4.7994,4.8006,4.8092,4.8051,4.817,4.8118,4.8159,4.8184,4.8189,4.8201,4.8155,4.8238,4.8376,4.8393,4.8209,4.8207,4.8205,0,4.7382,4.7514,4.7616,4.7653,4.7746,4.7792,4.7832,4.7898,4.7947,4.8016,4.8048,4.8125,4.8168,4.8227,4.8259,4.8225,4.8376,4.8336,4.8395,4.8395,4.8428,4.8426,4.8578,4.8451,4.8451,4.845,4.845,0,4.7502,4.7588,4.7648,4.7711,4.7807,4.7841,4.7935,4.7974,4.8032,4.8101,4.8112,4.8176,4.8214,4.8283,4.8308,4.8403,4.8421,4.844,4.8446,4.8441,4.8439,4.847,4.8464,4.8455,4.8454,4.8453,4.8452,0,4.7594,4.7638,4.775,4.7829,4.7851,4.7919,4.7986,4.8046,4.808,4.8168,4.819,4.8243,4.8325,4.8362,4.8462,4.8479,4.8588,4.8588,4.8567,4.857,4.8627,4.8622,4.8805,4.8832,4.8685,4.8687,4.8688,0,4.7669,4.7737,4.7824,4.7873,4.7915,4.7993,4.8044,4.8079,4.8131,4.8214,4.8264,4.8347,4.8416,4.8545,4.8592,4.8668,4.8671,4.873,4.8682,4.8675,4.8674,4.8671,4.8678,4.8739,4.874,4.8742,4.8743,0,4.7799,4.7817,4.7892,4.7975,4.8037,4.8103,4.8167,4.8206,4.825,4.8308,4.8394,4.8447,4.8551,4.8633,4.8713,4.8751,4.8755,4.8757,4.8775,4.8771,4.8758,4.8768,4.8593,4.8753,4.8752,4.8751,4.8751,4.875,4.7887,4.7947,4.8019,4.8102,4.8155,4.8215,4.8277,4.832,4.8392,4.8482,4.8497,4.8588,4.8653,4.8761,4.8803,4.8873,4.8859,4.8884,4.8891,4.8898,4.8903,4.8744,4.8887,4.8887,4.8887,4.8886,4.8886,0,4.8019,4.8065,4.8142,4.8233,4.8299,4.8297,4.8369,4.8423,4.8504,4.8566,4.8634,4.8732,4.8811,4.8864,4.8944,4.899,4.8994,4.901,4.9008,4.9017,4.891,4.8887,4.9006,4.9006,4.9006,4.9006,4.9006,4.9006,4.8095,4.8199,4.8226,4.8355,4.84,4.8493,4.8533,4.8589,4.8638,4.8749,4.8816,4.885,4.8908,4.8993,4.9065,4.9078,4.9108,4.9126,4.9138,4.9037,4.9025,4.9013,4.8992,4.9131,4.9131,4.9241,4.9242,4.9242]}]]